Weather History for Paducah, KY

Change the Weather History Date:

Saturday, March 31, 2012

  Actual Average Record
Temperature  
Mean Temperature 69 °F 53 °F  
Max Temperature 80 °F 64 °F 84 °F (1986)
Min Temperature 57 °F 42 °F 22 °F (1944)
Degree Days  
Heating Degree Days 0 12  
Month to date heating degree days 188 523  
Since 1 July heating degree days 2991 3819  
Cooling Degree Days 4 0  
Month to date cooling degree days 60 7  
Year to date cooling degree days 60 7  
Growing Degree Days 18 (Base 50)    
Moisture  
Dew Point 59 °F    
Average Humidity 74    
Maximum Humidity 100    
Minimum Humidity 48    
Precipitation  
Precipitation 0.00 in 0.15 in 2.15 in (1938)
Month to date precipitation 4.00 3.93  
Year to date precipitation 9.74 11.52  
Snow  
Snow 0.00 in 0.00 in T in (1954)
Month to date snowfall T 0.6  
Since 1 July snowfall 0.7 9.1  
Snow Depth 0.00 in    
Sea Level Pressure  
Sea Level Pressure 29.84 in    
Wind  
Wind Speed 3 mph (East)    
Max Wind Speed 8 mph    
Max Gust Speed 12 mph    
Visibility 6 miles    
Events      
T = Trace of Precipitation, MM = Missing Value Source: NWS Daily Summary

Daily Weather History Graph

Daily Weather History Graph

Search for Another Location

Airport:

Trip Planner

Search our weather history database for the weather conditions in past years. The results will help you decide how hot, cold, wet, or windy it might be!

Date:

Astronomy

Mar. 31, 2012 Rise Set
Actual Time 6:41 AM CDT 7:17 PM CDT
Civil Twilight 6:15 AM CDT 7:43 PM CDT
Nautical Twilight 5:44 AM CDT 8:14 PM CDT
Astronomical Twilight 5:13 AM CDT 8:45 PM CDT
Moon 12:53 PM CDT (3/31) 2:29 AM CDT (3/31)
Length of Visible Light 13h 27m
Length of Day
12h 35m
First Quarter, 59% of the Moon is Illuminated
Mar 31
First Quarter
Apr 6
Full
Apr 13
Last Quarter
Apr 21
New
Apr 29
First Quarter

Hourly Weather History & Observations

Time (CDT) Temp. Heat Index Dew Point Humidity Pressure Visibility Wind Dir Wind Speed Gust Speed Precip Events Conditions
12:53 AM 64.9 °F - 60.1 °F 84% 29.79 in 10.0 mi SSW 4.6 mph - N/A   Clear
1:53 AM 64.0 °F - 60.1 °F 87% 29.81 in 9.0 mi SSW 4.6 mph - N/A   Clear
2:53 AM 63.0 °F - 60.1 °F 90% 29.81 in 8.0 mi Calm Calm - N/A   Clear
3:53 AM 61.0 °F - 59.0 °F 93% 29.81 in 6.0 mi SSW 4.6 mph - N/A   Clear
4:53 AM 62.1 °F - 60.1 °F 93% 29.81 in 6.0 mi SW 4.6 mph - N/A   Clear
5:53 AM 61.0 °F - 59.0 °F 93% 29.82 in 5.0 mi WSW 3.5 mph - N/A   Clear
6:45 AM 57.2 °F - 57.2 °F 100% 29.84 in 1.8 mi Calm Calm - N/A   Clear
6:53 AM 57.9 °F - 57.0 °F 97% 29.84 in 1.2 mi NNW 3.5 mph - N/A   Clear
7:38 AM 59.0 °F - 57.2 °F 94% 29.85 in 1.2 mi Calm Calm - N/A   Mostly Cloudy
7:53 AM 61.0 °F - 59.0 °F 93% 29.85 in 1.5 mi Calm Calm - N/A   Mostly Cloudy
8:02 AM 60.8 °F - 60.8 °F 100% 29.85 in 1.8 mi Calm Calm - N/A   Overcast
8:12 AM 60.8 °F - 60.8 °F 100% 29.86 in 2.0 mi Calm Calm - N/A   Overcast
8:53 AM 63.0 °F - 61.0 °F 93% 29.86 in 2.0 mi Calm Calm - N/A   Overcast
9:53 AM 64.0 °F - 61.0 °F 90% 29.87 in 2.5 mi NNE 3.5 mph - N/A   Overcast
10:40 AM 64.4 °F - 60.8 °F 88% 29.88 in 3.0 mi Calm Calm - N/A   Overcast
10:53 AM 64.0 °F - 61.0 °F 90% 29.88 in 3.0 mi East 4.6 mph - N/A   Overcast
11:18 AM 66.2 °F - 60.8 °F 83% 29.88 in 4.0 mi North 4.6 mph - N/A   Haze
11:53 AM 66.9 °F - 61.0 °F 81% 29.87 in 6.0 mi ENE 3.5 mph - N/A   Haze
12:03 PM 68.0 °F - 60.8 °F 78% 29.88 in 6.0 mi Calm Calm - N/A   Haze
12:53 PM 73.0 °F - 61.0 °F 66% 29.86 in 9.0 mi ENE 3.5 mph - N/A   Clear
1:53 PM 75.9 °F - 61.0 °F 60% 29.84 in 10.0 mi NE 4.6 mph - N/A   Clear
2:53 PM 78.1 °F - 60.1 °F 54% 29.82 in 10.0 mi Calm Calm - N/A   Clear
3:53 PM 80.1 °F 80.9 °F 60.1 °F 50% 29.81 in 10.0 mi North 6.9 mph - N/A   Clear
4:53 PM 79.0 °F - 57.0 °F 47% 29.80 in 10.0 mi Calm Calm - N/A   Clear
5:53 PM 78.1 °F - 57.0 °F 48% 29.81 in 10.0 mi Calm Calm - N/A   Clear
6:53 PM 72.0 °F - 60.1 °F 66% 29.81 in 10.0 mi Calm Calm - N/A   Clear
7:53 PM 66.0 °F - 59.0 °F 78% 29.81 in 10.0 mi Calm Calm - N/A   Clear
8:53 PM 64.9 °F - 59.0 °F 81% 29.82 in 9.0 mi ESE 3.5 mph - N/A   Clear
9:53 PM 63.0 °F - 57.0 °F 81% 29.83 in 9.0 mi ESE 4.6 mph - N/A   Clear
10:53 PM 64.4 °F - 55.4 °F 73% 29.83 in 8.0 mi ESE 3.5 mph - N/A   Clear
11:53 PM 60.8 °F - 55.4 °F 82% 29.83 in 8.0 mi ESE 3.5 mph - N/A   Clear